TimeCST,TemperatureF,Dew PointF,Humidity,Sea Level PressureIn,VisibilityMPH,Wind Direction,Wind SpeedMPH,Gust SpeedMPH,PrecipitationIn,Events,Conditions,WindDirDegrees,DateUTC
12:15 AM,27.3,27.0,99,30.07,5.0,West,4.6,-,N/A,,Overcast,280,2013-01-17 06:15:00
12:55 AM,29.7,28.9,97,30.09,7.0,Calm,Calm,-,N/A,,Overcast,0,2013-01-17 06:55:00
1:15 AM,30.2,29.7,98,30.11,7.0,WNW,3.5,-,N/A,,Overcast,290,2013-01-17 07:15:00
1:35 AM,30.7,30.0,97,30.12,7.0,WNW,6.9,-,N/A,,Overcast,290,2013-01-17 07:35:00
1:55 AM,31.1,30.2,96,30.14,7.0,WNW,6.9,-,N/A,,Overcast,300,2013-01-17 07:55:00
2:15 AM,32.0,30.7,95,30.14,10.0,NNW,5.8,-,N/A,,Overcast,340,2013-01-17 08:15:00
2:35 AM,32.0,29.3,90,30.15,10.0,North,10.4,-,N/A,,Overcast,350,2013-01-17 08:35:00
2:55 AM,31.1,25.7,80,30.16,10.0,North,9.2,-,N/A,,Overcast,360,2013-01-17 08:55:00
3:15 AM,30.2,25.3,82,30.18,10.0,North,8.1,-,N/A,,Overcast,350,2013-01-17 09:15:00
3:35 AM,29.1,24.3,82,30.18,10.0,NNW,4.6,-,N/A,,Mostly Cloudy,340,2013-01-17 09:35:00
3:55 AM,27.0,22.3,83,30.19,10.0,NNW,9.2,-,N/A,,Scattered Clouds,340,2013-01-17 09:55:00
4:15 AM,25.7,21.0,82,30.20,10.0,NNW,8.1,-,N/A,,Clear,340,2013-01-17 10:15:00
4:35 AM,25.5,20.3,81,30.21,10.0,NNW,10.4,-,N/A,,Scattered Clouds,330,2013-01-17 10:35:00
4:55 AM,24.8,19.4,80,30.22,10.0,NNW,9.2,-,N/A,,Clear,330,2013-01-17 10:55:00
5:15 AM,24.4,19.2,81,30.23,10.0,NNW,11.5,-,N/A,,Clear,340,2013-01-17 11:15:00
5:35 AM,24.1,18.5,79,30.24,10.0,NNW,11.5,-,N/A,,Clear,340,2013-01-17 11:35:00
5:55 AM,22.3,17.6,82,30.25,10.0,North,6.9,-,N/A,,Clear,360,2013-01-17 11:55:00
6:15 AM,20.3,16.7,86,30.26,10.0,NNW,5.8,-,N/A,,Clear,340,2013-01-17 12:15:00
6:35 AM,19.4,16.2,87,30.26,10.0,North,6.9,-,N/A,,Clear,350,2013-01-17 12:35:00
6:55 AM,19.9,15.4,83,30.28,10.0,North,8.1,-,N/A,,Clear,350,2013-01-17 12:55:00
7:15 AM,19.0,13.5,79,30.29,10.0,North,8.1,-,N/A,,Clear,350,2013-01-17 13:15:00
7:35 AM,18.0,12.2,78,30.30,10.0,NNW,5.8,-,N/A,,Clear,340,2013-01-17 13:35:00
7:55 AM,19.4,12.2,74,30.30,10.0,NNW,5.8,-,N/A,,Clear,340,2013-01-17 13:55:00
8:15 AM,20.8,13.3,73,30.30,10.0,NNW,5.8,-,N/A,,Clear,340,2013-01-17 14:15:00
8:55 AM,22.1,14.9,74,30.32,10.0,NNW,8.1,-,N/A,,Clear,340,2013-01-17 14:55:00
9:15 AM,22.1,12.6,67,30.33,10.0,NNW,8.1,-,N/A,,Clear,340,2013-01-17 15:15:00
9:35 AM,23.0,11.3,61,30.33,10.0,NNW,9.2,-,N/A,,Clear,330,2013-01-17 15:35:00
9:55 AM,23.2,10.4,58,30.34,10.0,NNW,10.4,-,N/A,,Clear,330,2013-01-17 15:55:00
10:15 AM,24.1,10.0,55,30.35,10.0,NNW,13.8,-,N/A,,Clear,330,2013-01-17 16:15:00
10:35 AM,24.8,9.9,53,30.35,10.0,NW,13.8,-,N/A,,Clear,320,2013-01-17 16:35:00
10:55 AM,25.2,11.3,56,30.35,10.0,NW,11.5,-,N/A,,Clear,320,2013-01-17 16:55:00
11:15 AM,25.7,12.2,57,30.35,10.0,NW,13.8,19.6,N/A,,Clear,320,2013-01-17 17:15:00
11:35 AM,25.7,12.0,56,30.35,10.0,NW,13.8,-,N/A,,Clear,320,2013-01-17 17:35:00
11:55 AM,25.7,9.9,51,30.35,10.0,NNW,12.7,-,N/A,,Clear,330,2013-01-17 17:55:00
12:15 PM,26.4,9.5,49,30.34,10.0,NNW,13.8,-,N/A,,Clear,330,2013-01-17 18:15:00
12:35 PM,26.4,10.0,50,30.34,10.0,WNW,11.5,-,N/A,,Clear,300,2013-01-17 18:35:00
12:55 PM,27.0,12.0,53,30.33,10.0,NNW,13.8,-,N/A,,Clear,330,2013-01-17 18:55:00
1:15 PM,27.3,13.3,56,30.34,10.0,WNW,11.5,-,N/A,,Clear,300,2013-01-17 19:15:00
1:35 PM,27.0,12.4,54,30.34,10.0,NNW,13.8,-,N/A,,Clear,340,2013-01-17 19:35:00
1:55 PM,26.6,11.5,53,30.34,10.0,NNW,15.0,-,N/A,,Clear,330,2013-01-17 19:55:00
2:15 PM,26.4,11.3,53,30.34,10.0,NNW,12.7,-,N/A,,Clear,330,2013-01-17 20:15:00
2:35 PM,26.6,12.0,54,30.34,10.0,WNW,11.5,-,N/A,,Clear,300,2013-01-17 20:35:00
2:55 PM,26.6,12.7,56,30.34,10.0,WNW,10.4,-,N/A,,Clear,300,2013-01-17 20:55:00
3:15 PM,26.2,12.9,57,30.33,10.0,WNW,10.4,-,N/A,,Clear,300,2013-01-17 21:15:00
3:55 PM,26.1,13.1,58,30.34,10.0,WNW,6.9,-,N/A,,Clear,300,2013-01-17 21:55:00
4:55 PM,23.2,14.4,69,30.35,10.0,WNW,3.5,-,N/A,,Clear,290,2013-01-17 22:55:00
5:15 PM,21.7,14.7,74,30.36,10.0,West,4.6,-,N/A,,Clear,270,2013-01-17 23:15:00
5:35 PM,20.1,14.7,80,30.36,10.0,West,4.6,-,N/A,,Clear,260,2013-01-17 23:35:00
5:55 PM,18.9,14.4,83,30.36,10.0,West,6.9,-,N/A,,Clear,260,2013-01-17 23:55:00
6:35 PM,18.0,13.5,83,30.37,10.0,WSW,4.6,-,N/A,,Clear,250,2013-01-18 00:35:00
7:15 PM,16.7,13.1,86,30.38,10.0,WSW,4.6,-,N/A,,Clear,240,2013-01-18 01:15:00
7:35 PM,15.8,12.6,87,30.38,10.0,WSW,4.6,-,N/A,,Clear,250,2013-01-18 01:35:00
8:15 PM,15.6,12.2,86,30.38,10.0,West,4.6,-,N/A,,Clear,260,2013-01-18 02:15:00
8:55 PM,14.9,11.7,87,30.39,10.0,West,5.8,-,N/A,,Clear,260,2013-01-18 02:55:00
9:15 PM,14.4,11.1,87,30.40,10.0,West,4.6,-,N/A,,Clear,260,2013-01-18 03:15:00
9:35 PM,14.7,11.7,88,30.40,10.0,WSW,6.9,-,N/A,,Clear,250,2013-01-18 03:35:00
9:55 PM,14.0,11.1,88,30.39,10.0,WSW,6.9,-,N/A,,Clear,250,2013-01-18 03:55:00
11:15 PM,14.9,12.2,89,30.40,10.0,West,5.8,-,N/A,,Clear,270,2013-01-18 05:15:00
11:35 PM,13.8,11.3,90,30.39,10.0,Calm,Calm,-,N/A,,Clear,0,2013-01-18 05:35:00
11:55 PM,13.3,10.8,90,30.39,10.0,Calm,Calm,-,N/A,,Clear,0,2013-01-18 05:55:00